Regional Weather Roundup
Issued by NWS

Home | Current Version | Previous Version | Text Only | Print | Product List | Glossary On
Versions: 1 2 3 4 5 6 7 8 9 10 11 12 13 14 15 16 17 18 19 20 21 22 23 24 25 26 27 28 29 30 31 32 33 34 35 36 37 38 39 40 41 42 43 44 45 46 47 48 49 50
000
ASUS43 KDTX 140110
RWRMI
MICHIGAN HOURLY REGIONAL WEATHER ROUNDUP
NATIONAL WEATHER SERVICE DETROIT/PONTIAC MI
800 PM EST WED DEC 13 2017

NOTE: "FAIR" INDICATES FEW OR NO CLOUDS BELOW 12,000 FEET WITH NO
SIGNIFICANT WEATHER AND/OR OBSTRUCTION TO VISIBILITY.

MIZ047>049-052>055-059>063-066>070-074>076-081>083-140200-
SOUTHEAST LOWER MICHIGAN

CITY           SKY/WX    TMP DP  RH WIND       PRES   REMARKS
ADRIAN         LGT SNOW  22  20  92 E7        29.35F FOG     WCI  13
ALMA           LGT SNOW  18  17  93 NE15G22   29.49R WCI   4
ANN ARBOR      LGT SNOW  22  20  92 E8        29.37F VSB 1   WCI  12
BAD AXE        LGT SNOW  19  17  92 NE6       29.53F WCI  11
CARO           LGT SNOW  19  17  92 NE7       29.50S WCI  10
DETROIT CITY   LGT SNOW  23  21  92 E7        29.44F FOG     WCI  15
DETROIT        SNOW      25  22  88 E7        29.41F VSB 1/2 WCI  17
FLINT          LGT SNOW  19  16  88 NE14      29.45R FOG     WCI   6
GROSSE ILE     LGT SNOW  25  22  91 SE12      29.40F WCI  14
HILLSDALE      LGT SNOW  23  21  93 E8        29.30F WCI  14
HOWELL         LGT SNOW  21  20  95 NE8       29.39S WCI  12

CITY           SKY/WX    TMP DP  RH WIND       PRES   REMARKS
JACKSON        LGT SNOW  21  17  84 NE8       29.34S VSB 3/4 WCI  11
LAMBERTVILLE   LGT SNOW  24  22  91 SE7       29.36F WCI  16
LANSING        LGT SNOW  20  17  88 NE13      29.41R FOG     WCI   7
LAPEER         LGT SNOW  19  15  87 E7        29.47S WCI   9
MASON          LGT SNOW  22  18  83 NE9       29.38S WCI  12
MONROE         LGT SNOW  25  22  89 SE9       29.37F WCI  15
MT. CLEMENS    LGT SNOW  22  22  99 E15       29.44F FOG     WCI   9
PONTIAC        LGT SNOW  22  20  92 E10       29.40F VSB 3/4 WCI  11
PORT HOPE        N/A     23  20  88 NE7       29.54S WCI  15
PORT HURON     LGT SNOW  18  14  86 E9        29.49F VSB 1   WCI   6
TRI CITIES     LGT SNOW  19  18  95 NE13      29.52R VSB 3/4 WCI   6
MIDLAND        LGT SNOW  20  17  88 NE7       29.53R WCI  11
TROY           LGT SNOW  24  22  92 E7        29.45F VSB 1   WCI  16
SAGINAW HB     LGT SNOW  19  18  93 NE14      29.51R WCI   6
$$
MIZ043>046-050>051-056>058-064>065-071>073-077>080-140200-
SOUTHWEST LOWER MICHIGAN

CITY           SKY/WX    TMP DP  RH WIND       PRES   REMARKS
BATTLE CREEK   LGT SNOW  22  19  89 NE10      29.35R FOG     WCI  11
BENTON HARBOR  LGT SNOW  29  25  85 NE5       29.39R FOG     WCI  24
BIG RAPIDS     LGT SNOW  17  14  86 NE8       29.51R WCI   7
COLDWATER      LGT SNOW  26  25  96 NE3       29.31R
FREMONT        LGT SNOW  19  17  90 NE12      29.50R WCI   6
HOLLAND        LGT SNOW  21  17  84 NE10      29.45R VSB 1   WCI  10
GRAND RAPIDS   LGT SNOW  20  17  88 NE16      29.42R VSB 1   WCI   6
IONIA          LGT SNOW  20  17  90 NE15      29.43R WCI   6
KALAMAZOO      LGT SNOW  23  20  88 NE7       29.35R FOG     WCI  15
LUDINGTON      LGT SNOW  18  14  85 NE9G16    29.58R WCI   7
MARSHALL       FLURRIES  21  19  92 NE5       29.34R WCI  15
MOUNT PLEASANT LGT SNOW  19  15  83 NE9G16    29.51R WCI   8
MUSKEGON       LGT SNOW  20  16  84 N12       29.49R VSB 1   WCI   8
SOUTH HAVEN    LGT SNOW  25  22  89 NE7       29.39R WCI  17
$$
MIZ016>042-140200-
NORTHERN LOWER MICHIGAN

CITY           SKY/WX    TMP DP  RH WIND       PRES   REMARKS
ALPENA         LGT SNOW  17  15  92 N15       29.64R FOG     WCI   2
BEAVER ISLAND  CLEAR     13   5  69 NE10      29.71R WCI   0
BELLAIRE       CLOUDY    15  12  90 N3        29.67R
CADILLAC       LGT SNOW  14  10  87 N8        29.54R WCI   2
CHARLEVOIX     CLOUDY    18  13  80 NE8       29.69R WCI   8
FRANKFORT      LGT SNOW  20  16  82 NE8       29.64R WCI  10
GAYLORD        LGT SNOW  11   7  84 NE7       29.59R FOG     WCI   0
GRAYLING       LGT SNOW  13   8  81 N9        29.59R WCI   1
HARBOR SPRINGS MOCLDY    15   8  74 NE12G20   29.67R WCI   1
HOUGHTON LAKE  LGT SNOW  14  10  84 NE10      29.56S FOG     WCI   1
MANISTEE       LGT SNOW  17  13  84 NE8       29.61R FOG     WCI   7
OSCODA         LGT SNOW  17  14  86 N6        29.58S WCI   9
PELLSTON       CLOUDY    13   8  81 N9        29.69R WCI   1
ROGERS CITY    CLOUDY    16   8  69 NE9       29.67R WCI   5
TRAVERSE CITY  LGT SNOW  17  12  80 NE12      29.64R WCI   4
$$
MIZ007>008-015-140200-
EASTERN UPPER MICHIGAN

CITY           SKY/WX    TMP DP  RH WIND       PRES   REMARKS
KINROSS        CLOUDY     1  -3  83 NE7       29.71R WCI -12
MACKINAC ISLAN PTCLDY    11   6  79 NE14G21   29.70R WCI  -5
NEWBERRY       CLOUDY     2   1  97 CALM      29.70R
S. S. MARIE    CLOUDY     5  -2  72 NE7       29.72R WCI  -7
MUNISING         N/A     22  16  78 NE18      29.74R WCI   7
$$
MIZ004>006-011>014-085-140200-
CENTRAL UPPER MICHIGAN

CITY           SKY/WX    TMP DP  RH WIND       PRES   REMARKS
MANISTIQUE     CLEAR      4  -2  76 N7        29.73R WCI  -8
ESCANABA       CLOUDY    10   5  79 N5        29.76R WCI   2
MENOMINEE      CLOUDY    15   9  76 NE13G22   29.74R WCI   1
SAWYER-GWINN   LGT SNOW  16  10  79 N13       29.71R WCI   2
$$
MIZ001>003-009>011-084-140200-
WESTERN UPPER MICHIGAN

CITY           SKY/WX    TMP DP  RH WIND       PRES   REMARKS
IRON MOUNTAIN  FLURRIES  12   8  84 N6        29.71R WCI   3
HOUGHTON       LGT SNOW  17   9  70 N8        29.77R WCI   7
COPPER HARBOR    N/A     18  13  80 E15G26    29.81R WCI   4
IRONWOOD       FLURRIES  18  14  84 N9        29.80R WCI   7
$$

ABBREVIATIONS USED IN REMARKS
   TC - TEMPERATURE IN CELSIUS
  WCI - WIND CHILL INDEX
   HX - HEAT INDEX
  VSB - VISIBILITY





USA.gov is the U.S. government's official web portal to all federal, state and local government web resources and services.